| time (UTC) | temp C | wind direction | speed KPH | gust KPH | rain 1hr cm | rain 24hr cm | rain mn cm | humidity % | barometer mb |
| 20260904111550 | 15 | 0 | 0.0 | 3.2 | 0.00 | 0.28 | 0.15 | 92 | 1011.2 |
| 20260904110043 | 16 | 0 | 0.0 | 1.6 | 0.00 | 0.28 | 0.15 | 92 | 1011.1 |
| 20260904104544 | 16 | 0 | 0.0 | 0.0 | 0.00 | 0.28 | 0.15 | 92 | 1011.1 |
| 20260904103040 | 16 | 0 | 0.0 | 0.0 | 0.00 | 0.28 | 0.13 | 92 | 1011.0 |
| 20260904101541 | 16 | 0 | 0.0 | 4.8 | 0.00 | 0.28 | 0.13 | 92 | 1010.9 |
| 20260904100042 | 16 | 0 | 0.0 | 0.0 | 0.00 | 0.28 | 0.13 | 92 | 1010.9 |
| 20260904094542 | 16 | 0 | 0.0 | 4.8 | 0.03 | 0.28 | 0.13 | 92 | 1010.8 |
| 20260904093048 | 16 | 0 | 0.0 | 0.0 | 0.05 | 0.28 | 0.13 | 92 | 1010.7 |
| 20260904091551 | 16 | 0 | 0.0 | 0.0 | 0.05 | 0.25 | 0.10 | 92 | 1010.6 |
| 20260904090041 | 16 | 0 | 0.0 | 0.0 | 0.08 | 0.25 | 0.10 | 92 | 1010.8 |
| 20260904084541 | 16 | 0 | 0.0 | 6.4 | 0.08 | 0.23 | 0.08 | 92 | 1010.7 |
| 20260904083047 | 16 | 0 | 0.0 | 3.2 | 0.05 | 0.20 | 0.08 | 92 | 1010.9 |
| 20260904081542 | 16 | 254 | 0.0 | 3.2 | 0.05 | 0.18 | 0.05 | 92 | 1011.0 |
| 20260904080043 | 16 | 0 | 0.0 | 1.6 | 0.03 | 0.18 | 0.03 | 92 | 1010.8 |
| 20260904074557 | 16 | 0 | 0.0 | 3.2 | 0.00 | 0.15 | 0.00 | 92 | 1010.8 |
| 20260904073047 | 16 | 0 | 0.0 | 3.2 | 0.00 | 0.15 | 0.00 | 92 | 1010.8 |
| 20260904071609 | 16 | 0 | 0.0 | 0.0 | 0.00 | 0.13 | 0.00 | 92 | 1011.0 |
| 20260904070042 | 16 | 0 | 0.0 | 0.0 | 0.00 | 0.13 | 0.00 | 92 | 1010.9 |
| 20260904064601 | 16 | 0 | 0.0 | 0.0 | 0.00 | 0.13 | 0.13 | 91 | 1010.9 |
| 20260904063051 | 16 | 0 | 0.0 | 1.6 | 0.03 | 0.13 | 0.13 | 91 | 1011.0 |
| 20260904061540 | 16 | 0 | 0.0 | 0.0 | 0.10 | 0.13 | 0.13 | 91 | 1011.0 |
| 20260904060049 | 16 | 0 | 0.0 | 0.0 | 0.10 | 0.13 | 0.13 | 90 | 1010.9 |
| 20260904054544 | 17 | 0 | 0.0 | 0.0 | 0.13 | 0.13 | 0.13 | 89 | 1011.1 |
| 20260904053055 | 17 | 0 | 0.0 | 4.8 | 0.08 | 0.08 | 0.08 | 89 | 1011.1 |
| 20260904051542 | 17 | 0 | 0.0 | 0.0 | 0.00 | 0.00 | 0.00 | 88 | 1011.2 |
| 20260904050047 | 17 | 0 | 0.0 | 0.0 | 0.00 | 0.00 | 0.00 | 88 | 1011.2 |
| 20260904044546 | 17 | 0 | 0.0 | 0.0 | 0.00 | 0.00 | 0.00 | 87 | 1011.1 |
| 20260904043048 | 17 | 0 | 0.0 | 0.0 | 0.00 | 0.00 | 0.00 | 86 | 1011.2 |
| 20260904041544 | 17 | 0 | 0.0 | 0.0 | 0.00 | 0.00 | 0.00 | 84 | 1011.2 |
| 20260904040049 | 17 | 0 | 0.0 | 0.0 | 0.00 | 0.00 | 0.00 | 82 | 1011.1 |
| 20260904034541 | 18 | 0 | 0.0 | 0.0 | 0.00 | 0.00 | 0.00 | 79 | 1011.1 |
| 20260904033057 | 18 | 0 | 0.0 | 1.6 | 0.00 | 0.00 | 0.00 | 77 | 1010.9 |
| 20260904031553 | 18 | 0 | 0.0 | 6.4 | 0.00 | 0.00 | 0.00 | 75 | 1010.8 |
| 20260904030043 | 19 | 0 | 0.0 | 17.7 | 0.00 | 0.00 | 0.00 | 73 | 1010.8 |
| 20260904024543 | 20 | 235 | 3.2 | 16.1 | 0.00 | 0.00 | 0.00 | 73 | 1010.8 |
| 20260904023049 | 20 | 200 | 0.0 | 6.4 | 0.00 | 0.00 | 0.00 | 72 | 1010.8 |
| 20260904021550 | 20 | 200 | 3.2 | 8.0 | 0.00 | 0.00 | 0.00 | 72 | 1010.7 |
| 20260904020043 | 20 | 198 | 0.0 | 8.0 | 0.00 | 0.00 | 0.00 | 71 | 1010.8 |
| 20260904014544 | 21 | 198 | 1.6 | 9.7 | 0.00 | 0.00 | 0.00 | 70 | 1010.9 |
| 20260904013041 | 21 | 0 | 1.6 | 9.7 | 0.00 | 0.00 | 0.00 | 69 | 1011.0 |
| 20260904011543 | 21 | 187 | 3.2 | 12.9 | 0.00 | 0.00 | 0.00 | 68 | 1011.0 |
| 20260904010052 | 21 | 184 | 3.2 | 12.9 | 0.00 | 0.00 | 0.00 | 67 | 1011.2 |
| 20260904004544 | 21 | 0 | 4.8 | 12.9 | 0.00 | 0.00 | 0.00 | 66 | 1011.3 |
| 20260904003049 | 22 | 213 | 3.2 | 14.5 | 0.00 | 0.00 | 0.00 | 66 | 1011.2 |
| 20260904001546 | 22 | 221 | 4.8 | 16.1 | 0.00 | 0.00 | 0.00 | 65 | 1011.1 |
| 20260904000043 | 22 | 207 | 4.8 | 14.5 | 0.00 | 0.00 | 0.00 | 65 | 1011.2 |
| 20260903234541 | 22 | 192 | 6.4 | 12.9 | 0.00 | 0.00 | 0.00 | 64 | 1011.3 |
| 20260903233045 | 22 | 229 | 4.8 | 16.1 | 0.00 | 0.00 | 0.00 | 64 | 1011.3 |
| 20260903231551 | 22 | 215 | 6.4 | 16.1 | 0.00 | 0.00 | 0.00 | 64 | 1011.4 |
| 20260903230047 | 22 | 0 | 1.6 | 11.3 | 0.00 | 0.00 | 0.00 | 62 | 1011.4 |
| 20260903224544 | 22 | 0 | 3.2 | 9.7 | 0.00 | 0.00 | 0.00 | 62 | 1011.6 |
| 20260903223046 | 22 | 184 | 3.2 | 11.3 | 0.00 | 0.00 | 0.00 | 62 | 1011.6 |
| 20260903221548 | 23 | 0 | 4.8 | 11.3 | 0.00 | 0.00 | 0.00 | 61 | 1012.0 |
| 20260903220050 | 23 | 197 | 1.6 | 11.3 | 0.00 | 0.00 | 0.00 | 61 | 1012.1 |
| 20260903214545 | 23 | 188 | 4.8 | 14.5 | 0.00 | 0.00 | 0.00 | 61 | 1012.3 |
| 20260903213043 | 22 | 225 | 4.8 | 14.5 | 0.00 | 0.00 | 0.00 | 63 | 1012.5 |
| 20260903211548 | 22 | 200 | 3.2 | 16.1 | 0.00 | 0.00 | 0.00 | 62 | 1012.7 |
| 20260903210048 | 23 | 228 | 4.8 | 16.1 | 0.00 | 0.00 | 0.00 | 61 | 1012.7 |
| 20260903204542 | 23 | 217 | 4.8 | 17.7 | 0.00 | 0.00 | 0.00 | 59 | 1012.7 |
| 20260903203053 | 23 | 180 | 4.8 | 16.1 | 0.00 | 0.00 | 0.00 | 59 | 1012.7 |
| 20260903201550 | 23 | 188 | 4.8 | 16.1 | 0.00 | 0.00 | 0.00 | 60 | 1012.7 |
| 20260903200049 | 23 | 218 | 3.2 | 12.9 | 0.00 | 0.00 | 0.00 | 60 | 1012.9 |
| 20260903194544 | 23 | 209 | 4.8 | 14.5 | 0.00 | 0.00 | 0.00 | 61 | 1013.1 |
| 20260903193049 | 23 | 194 | 3.2 | 14.5 | 0.00 | 0.00 | 0.00 | 60 | 1013.2 |
| 20260903191548 | 23 | 182 | 1.6 | 11.3 | 0.00 | 0.00 | 0.00 | 61 | 1013.4 |
| 20260903190044 | 23 | 187 | 3.2 | 9.7 | 0.00 | 0.00 | 0.00 | 62 | 1013.6 |
| 20260903184543 | 22 | 0 | 1.6 | 11.3 | 0.00 | 0.00 | 0.00 | 63 | 1013.7 |
| 20260903183050 | 22 | 121 | 3.2 | 12.9 | 0.00 | 0.00 | 0.00 | 62 | 1013.8 |
| 20260903181547 | 21 | 138 | 1.6 | 11.3 | 0.00 | 0.00 | 0.00 | 65 | 1014.1 |
| 20260903180109 | 21 | 0 | 3.2 | 11.3 | 0.00 | 0.00 | 0.00 | 66 | 1014.0 |
| 20260903174542 | 20 | 137 | 1.6 | 11.3 | 0.00 | 0.00 | 0.00 | 69 | 1014.0 |
| 20260903173050 | 18 | 128 | 0.0 | 6.4 | 0.00 | 0.00 | 0.00 | 73 | 1014.2 |
| 20260903171550 | 18 | 128 | 1.6 | 11.3 | 0.00 | 0.00 | 0.00 | 74 | 1014.1 |
| 20260903170041 | 17 | 132 | 1.6 | 11.3 | 0.00 | 0.00 | 0.00 | 75 | 1014.3 |
| 20260903164547 | 17 | 134 | 1.6 | 6.4 | 0.00 | 0.00 | 0.00 | 75 | 1014.3 |
| 20260903163047 | 17 | 134 | 0.0 | 4.8 | 0.00 | 0.00 | 0.00 | 77 | 1014.3 |
| 20260903161541 | 17 | 0 | 0.0 | 4.8 | 0.00 | 0.00 | 0.00 | 77 | 1014.3 |
| 20260903160046 | 17 | 0 | 0.0 | 11.3 | 0.00 | 0.00 | 0.00 | 78 | 1014.4 |
| 20260903154545 | 16 | 116 | 1.6 | 12.9 | 0.00 | 0.00 | 0.00 | 78 | 1014.5 |
| 20260903153045 | 16 | 123 | 3.2 | 12.9 | 0.00 | 0.00 | 0.00 | 78 | 1014.6 |
| 20260903151552 | 16 | 0 | 0.0 | 8.0 | 0.00 | 0.00 | 0.00 | 80 | 1014.6 |
| 20260903150049 | 16 | 142 | 1.6 | 9.7 | 0.00 | 0.00 | 0.00 | 81 | 1014.5 |
| 20260903144543 | 15 | 153 | 0.0 | 8.0 | 0.00 | 0.00 | 0.00 | 81 | 1014.4 |
| 20260903143048 | 15 | 153 | 0.0 | 4.8 | 0.00 | 0.00 | 0.00 | 82 | 1014.6 |
| 20260903141549 | 15 | 0 | 1.6 | 9.7 | 0.00 | 0.00 | 0.00 | 82 | 1014.6 |
| 20260903140049 | 15 | 157 | 0.0 | 4.8 | 0.00 | 0.00 | 0.00 | 82 | 1014.4 |
| 20260903134542 | 15 | 0 | 0.0 | 4.8 | 0.00 | 0.00 | 0.00 | 82 | 1014.3 |
| 20260903133042 | 15 | 0 | 0.0 | 4.8 | 0.00 | 0.00 | 0.00 | 81 | 1014.3 |
| 20260903131550 | 15 | 0 | 0.0 | 3.2 | 0.00 | 0.00 | 0.00 | 81 | 1014.3 |
| 20260903130109 | 15 | 0 | 0.0 | 8.0 | 0.00 | 0.00 | 0.00 | 81 | 1014.4 |
| 20260903124543 | 15 | 0 | 0.0 | 4.8 | 0.00 | 0.00 | 0.00 | 81 | 1014.3 |
| 20260903123049 | 15 | 161 | 0.0 | 8.0 | 0.00 | 0.00 | 0.00 | 81 | 1014.3 |
| 20260903121550 | 15 | 0 | 0.0 | 6.4 | 0.00 | 0.00 | 0.00 | 81 | 1014.5 |
| 20260903120048 | 15 | 0 | 0.0 | 3.2 | 0.00 | 0.00 | 0.00 | 81 | 1014.5 |
| 20260903114541 | 15 | 162 | 0.0 | 6.4 | 0.00 | 0.00 | 0.00 | 81 | 1014.7 |
| 20260903113043 | 15 | 162 | 0.0 | 6.4 | 0.00 | 0.00 | 0.00 | 82 | 1014.9 |